Hourly Data Report for July 04, 2021

MANIWAKI AIRPORT
QUEBEC
Current Station Operator: ECCC - MSC

46°16'29.000" N
75°59'31.000" W
199.70 m
7034482
71721
WMJ

Download Data

Hourly Data (July 2021)
Hourly Data Report for July 4, 2021
TIME
LST
Temp Definition
°C
Dew Point Definition
°C
Rel Hum Definition
%
Precip. Amount Definition
mm

Wind Dir Definition
10's deg

Wind Spd Definition
km/h
Visibility Definition
km
Stn Press Definition
kPa
Hmdx Definition


Wind Chill Definition


Weather Definition


00:00 11.7 11.1 96 0.0 0 1   98.89     LegendNANA
01:00 10.5 10.1 97 0.0   0   98.92     LegendNANA
02:00 9.7 9.4 98 0.0 33 3   98.93     LegendNANA
03:00 9.3 9.0 98 0.0 2 1   98.94     LegendNANA
04:00 8.5 8.2 98 0.0 1 3   98.96     LegendNANA
05:00 10.1 9.9 99 0.0 35 3   98.98     LegendNANA
06:00 13.4 12.3 93 0.0 6 1   99.01     LegendNANA
07:00 16.2 13.2 82 0.0 0 1   99.04     LegendNANA
08:00 17.9 12.8 72 0.0 35 2   99.08     LegendNANA
09:00 19.6 11.2 58 0.0 8 5   99.06     LegendNANA
10:00 21.0 11.2 53 0.0 16 4   99.04     LegendNANA
11:00 22.1 11.1 50 0.0 11 8   99.02     LegendNANA
12:00 23.0 11.7 49 0.0 9 5   99.01 25   LegendNANA
13:00 23.1 10.9 46 0.0 21 7   98.99 25   LegendNANA
14:00 23.0 10.3 45 0.0 22 8   99.00     LegendNANA
15:00 24.3 10.3 41 0.0 36 4   98.97 26   LegendNANA
16:00 24.8 10.6 41 0.0 29 8   98.95 26   LegendNANA
17:00 24.2 9.6 40 0.0 20 7   98.97 25   LegendNANA
18:00 23.6 10.4 43 0.0 17 7   98.99 25   LegendNANA
19:00 22.0 14.6 63 0.0 17 4   99.03 26   LegendNANA
20:00 17.4 13.8 79 0.0   0   99.04     LegendNANA
21:00 14.9 12.9 88 0.0   0   99.06     LegendNANA
22:00 13.6 12.3 92 0.0 16 2   99.06     LegendNANA
23:00 12.6 11.6 94 0.0   0   99.09     LegendNANA

Notes on Data Quality.

Legend

  • E = Estimated
  • M = Missing
  • NA = Not Available*
  • [empty] = Indicates an unobserved value
Date modified: